User: anonymous   Login
Location: Haliburton Scout Reserve
(45.0900°N, 78.3200°W)
Time: 16:40:40
(UTC-05:00)
Language:

IDEFIX/ARIANE 42P - Orbit

View from above orbital plane
View from above orbital plane
View from above satellite
View from above satellite

Ground track
Ground track

The orbit data is extracted from the following two-line orbital elements,

1 27422U 02021B   14355.03872691  .00000397  00000-0  17252-3 0  6701
2 27422 098.2779 028.4247 0013071 055.5869 359.1269 14.29110299656828
Epoch (UTC): 21 December 2014 00:55:46
Eccentricity: 0.0013071
inclination: 98.2779°
perigee height: 785 km
apogee height: 804 km
right ascension of ascending node: 28.4247°
argument of perigee: 55.5869°
revolutions per day: 14.29110299
mean anomaly at epoch: 359.1269°
orbit number at epoch: 65682

The dashed part of the orbit path shows where the satellite is in the earth's shadow,  

DLR